Weather History for CXRB - October, 2012

Change the Weather History Date:

Wednesday, October 10, 2012

  Actual Average Record
Temperature  
Mean Temperature 10 °F -  
Max Temperature 16 °F - - ()
Min Temperature 3 °F - - ()
Degree Days  
Heating Degree Days 56    
Moisture  
Dew Point 8 °F    
Average Humidity 89    
Maximum Humidity 93    
Minimum Humidity 81    
Precipitation  
Precipitation 0.00 in - - ()
Sea Level Pressure  
Sea Level Pressure 29.86 in    
Wind  
Wind Speed 5 mph ()    
Max Wind Speed 10 mph    
Max Gust Speed -    
T = Trace of Precipitation, MM = Missing Value Source: Averaged Metar Reports

Daily Weather History Graph

Daily Weather History Graph

Search for Another Location

Airport or City:

Trip Planner

Search our weather history database for the weather conditions in past years. The results will help you decide how hot, cold, wet, or windy it might be!

Date:

Astronomy

Oct. 10, 2012 Rise Set
Actual Time 7:38 AM MDT 4:32 PM MDT
Civil Twilight 6:16 AM MDT 5:53 PM MDT
Nautical Twilight 4:44 AM MDT 7:25 PM MDT
Astronomical Twilight 2:55 AM MDT 9:11 PM MDT
Moon No Moon Rise 5:05 PM MDT (10/10)
Length of Visible Light 11h 37m
Length of Day
8h 54m
Waning Crescent, 26% of the Moon is Illuminated
Oct 10
Waning Crescent
Oct 15
New
Oct 21
First Quarter
Oct 29
Full
Nov 6
Last Quarter

Hourly Weather History & Observations

Time (MDT) Temp. Windchill Dew Point Humidity Pressure Visibility Wind Dir Wind Speed Gust Speed Precip Events Conditions
12:00 AM 5 °F - 2 °F 81% 29.89 in - NNW 10.4 mph - -  
12:00 AM 4.6 °F -10.4 °F 1.9 °F 89% 29.89 in - NNW 10.4 mph - N/A   Unknown
1:00 AM 5.7 °F -7.2 °F 3.4 °F 90% 29.89 in - NNW 8.1 mph - N/A   Unknown
2:00 AM 4.5 °F -8.7 °F 1.8 °F 89% 29.89 in - NNW 8.1 mph - N/A   Unknown
3:00 AM 4.3 °F -6.5 °F 1.6 °F 89% 29.89 in - NNW 5.8 mph - N/A   Unknown
5:00 AM 3.9 °F -10.4 °F 1.2 °F 89% 29.88 in - NNE 9.2 mph - N/A   Unknown
6:00 AM 5.4 °F -5.2 °F 2.8 °F 89% 29.88 in - NNE 5.8 mph - N/A   Unknown
8:00 AM 5.9 °F - 3.4 °F 89% 29.87 in - ENE 1.2 mph - N/A   Unknown
9:00 AM 7.7 °F - 5.4 °F 90% 29.86 in - NE 1.2 mph - N/A   Unknown
10:00 AM 8.8 °F - 6.4 °F 90% 29.85 in - Calm Calm - N/A   Unknown
11:00 AM 9.7 °F - 7.5 °F 91% 29.85 in - Calm Calm - N/A   Unknown
12:00 PM 12 °F - 10 °F 85% 29.84 in - Calm Calm - -  
12:00 PM 11.7 °F - 9.5 °F 91% 29.84 in - Calm Calm - N/A   Unknown
1:00 PM 13.5 °F - 11.5 °F 92% 29.84 in - Calm Calm - N/A   Unknown
2:00 PM 14.0 °F - 12.2 °F 93% 29.84 in - Calm Calm - N/A   Unknown
3:00 PM 14.2 °F 5.3 °F 12.4 °F 93% 29.84 in - SE 5.8 mph - N/A   Unknown
4:00 PM 15.4 °F 6.8 °F 13.6 °F 93% 29.84 in - ESE 5.8 mph - N/A   Unknown
5:00 PM 15.1 °F 5.2 °F 13.1 °F 92% 29.84 in - East 6.9 mph - N/A   Unknown
6:00 PM 16 °F - 13 °F 82% 29.84 in - East 6.9 mph - -  
6:00 PM 16.0 °F 6.3 °F 12.9 °F 88% 29.84 in - East 6.9 mph - N/A   Unknown
7:00 PM 16.3 °F 5.7 °F 13.5 °F 88% 29.84 in - ESE 8.1 mph - N/A   Unknown
8:00 PM 16.0 °F 7.4 °F 13.6 °F 90% 29.85 in - East 5.8 mph - N/A   Unknown
9:00 PM 14.9 °F 4.0 °F 12.0 °F 88% 29.85 in - East 8.1 mph - N/A   Unknown
10:00 PM 14.7 °F 2.9 °F 11.3 °F 86% 29.85 in - East 9.2 mph - N/A   Unknown
11:00 PM 14.7 °F 2.9 °F 10.9 °F 85% 29.85 in - East 9.2 mph - N/A   Unknown